Location: Clarion
(42.7316°N, 93.7330°W)
Time: 02:07:03
(UTC+00:00)

Cosmos 1300 Rocket - Pass Details

Date: 22 April 2026
Orbit: 596 x 617 km, 82.5° (Epoch: 20 May)

Event Time Altitude Azimuth Distance (km) Brightness Sun altitude
Exits shadow 03:39:51 43° 240° (WSW) 837 4.2 -24.8°
Maximum altitude 03:40:45 52° 281° (W) 745 4.1 -24.9°
Drops below altitude 10° 03:44:57 10° 358° (N) 1,947 6.7 -25.4°
Sets 03:47:14 0° 4° (N) 2,857 7.6 -25.7°
